SQ2FRB-13 Weather Reports


Display with metric or nautical units.
time (UTC)temp
F
wind
direction
speed
MPH
gust
MPH
rain 1hr
in
rain 24hr
in
rain mn
in
humidity
%
barometer
mb
20190121173042 26 161 6.0 8.0 0.00 0.00 0.00 87 1021.1
20190121172542 26 148 6.0 13.0 0.00 0.00 0.00 87 1021.1
20190121172042 26 174 6.0 13.0 0.00 0.00 0.00 87 1021.1
20190121171542 26 187 5.0 9.0 0.00 0.00 0.00 87 1021.1
20190121171042 26 204 5.0 7.0 0.00 0.00 0.00 87 1021.1
20190121170542 26 221 5.0 8.0 0.00 0.00 0.00 87 1021.1
20190121170042 26 218 4.0 9.0 0.00 0.00 0.00 87 1021.1
20190121165541 26 241 5.0 9.0 0.00 0.00 0.00 87 1021.1
20190121165042 26 216 4.0 8.0 0.00 0.00 0.00 88 1021.1
20190121164542 26 236 3.0 7.0 0.00 0.00 0.00 88 1021.1
20190121164041 26 173 3.0 6.0 0.00 0.00 0.00 88 1021.1
20190121163543 26 208 4.0 7.0 0.00 0.00 0.00 88 1021.3
20190121163042 26 195 3.0 5.0 0.00 0.00 0.00 88 1021.3
20190121162542 26 238 3.0 8.0 0.00 0.00 0.00 88 1021.3
20190121162042 26 252 4.0 5.0 0.00 0.00 0.00 88 1021.3
20190121161542 26 235 4.0 5.0 0.00 0.00 0.00 87 1021.6
20190121161042 26 279 4.0 7.0 0.00 0.00 0.00 87 1021.6
20190121160542 26 193 3.0 10.0 0.00 0.00 0.00 87 1021.6
20190121160043 26 202 3.0 10.0 0.00 0.00 0.00 87 1021.6
20190121155542 26 133 4.0 4.0 0.00 0.00 0.00 87 1021.5
20190121155043 26 214 4.0 7.0 0.00 0.00 0.00 87 1021.5
20190121154542 26 212 5.0 7.0 0.00 0.00 0.00 87 1021.5
20190121154042 26 171 6.0 7.0 0.00 0.00 0.00 87 1021.5
20190121153542 26 197 6.0 10.0 0.00 0.00 0.00 87 1021.5
20190121153042 26 208 5.0 8.0 0.00 0.00 0.00 87 1021.4
20190121152542 26 233 6.0 6.0 0.00 0.00 0.00 87 1021.4
20190121152042 26 235 6.0 9.0 0.00 0.00 0.00 87 1021.4
20190121151542 26 238 6.0 11.0 0.00 0.00 0.00 87 1021.8
20190121151042 26 180 6.0 11.0 0.00 0.00 0.00 87 1021.8
20190121150543 26 210 6.0 10.0 0.00 0.00 0.00 87 1021.8
20190121150043 26 240 6.0 10.0 0.00 0.00 0.00 87 1021.8
20190121145542 27 212 5.0 10.0 0.00 0.00 0.00 87 1021.8
20190121145042 27 199 4.0 10.0 0.00 0.00 0.00 87 1021.8
20190121144542 27 214 3.0 6.0 0.00 0.00 0.00 87 1021.8
20190121144042 27 214 4.0 5.0 0.00 0.00 0.00 87 1021.8
20190121143542 27 180 5.0 6.0 0.00 0.00 0.00 87 1021.8
20190121143041 27 224 6.0 11.0 0.00 0.00 0.00 87 1021.8
20190121142543 27 210 5.0 11.0 0.00 0.00 0.00 87 1021.8
20190121142042 27 223 5.0 8.0 0.00 0.00 0.00 87 1021.8
20190121141542 27 235 5.0 10.0 0.00 0.00 0.00 87 1022.1
20190121141042 27 242 5.0 8.0 0.00 0.00 0.00 87 1022.1
20190121140543 27 237 5.0 11.0 0.00 0.00 0.00 87 1022.1
20190121140045 27 176 5.0 7.0 0.00 0.00 0.00 87 1022.1
20190121140042 27 176 5.0 7.0 0.00 0.00 0.00 87 1022.1
20190121135542 27 231 6.0 7.0 0.00 0.00 0.00 87 1022.2
20190121135042 28 210 6.0 9.0 0.00 0.00 0.00 87 1022.2
20190121134542 28 190 6.0 10.0 0.00 0.00 0.00 87 1022.2
20190121134041 28 222 6.0 10.0 0.00 0.00 0.00 87 1022.2
20190121133542 28 218 6.0 9.0 0.00 0.00 0.00 87 1022.1
20190121133042 28 239 6.0 9.0 0.00 0.00 0.00 87 1022.1
20190121132542 28 234 7.0 9.0 0.00 0.00 0.00 87 1022.1
20190121132042 28 218 7.0 8.0 0.00 0.00 0.00 87 1022.1
20190121131542 28 203 7.0 15.0 0.00 0.00 0.00 87 1022.2
20190121131042 28 210 5.0 10.0 0.00 0.00 0.00 87 1022.2
20190121130542 28 237 4.0 8.0 0.00 0.00 0.00 87 1022.2
20190121130043 28 215 5.0 5.0 0.00 0.00 0.00 87 1022.2
20190121125542 28 225 5.0 9.0 0.00 0.00 0.00 87 1022.0
20190121125042 28 189 5.0 7.0 0.00 0.00 0.00 87 1022.0
20190121124542 28 183 5.0 8.0 0.00 0.00 0.00 87 1022.0
20190121124118 28 180 5.0 7.0 0.00 0.00 0.00 87 1022.0
20190121124042 28 180 5.0 7.0 0.00 0.00 0.00 87 1022.0
20190121123542 28 204 6.0 9.0 0.00 0.00 0.00 87 1022.4
20190121123042 28 225 6.0 9.0 0.00 0.00 0.00 87 1022.4
20190121122541 27 246 6.0 9.0 0.00 0.00 0.00 87 1022.4
20190121122042 27 231 5.0 11.0 0.00 0.00 0.00 88 1022.4
20190121121542 27 246 4.0 11.0 0.00 0.00 0.00 88 1022.6
20190121121042 27 220 5.0 8.0 0.00 0.00 0.00 88 1022.6
20190121120541 27 190 6.0 8.0 0.00 0.00 0.00 88 1022.6
20190121120043 27 210 7.0 8.0 0.00 0.00 0.00 88 1022.6
20190121115542 27 237 8.0 10.0 0.00 0.00 0.00 88 1022.3
20190121115043 27 222 8.0 9.0 0.00 0.00 0.00 88 1022.3
20190121114542 27 240 7.0 10.0 0.00 0.00 0.00 88 1022.3
20190121114042 27 213 6.0 10.0 0.00 0.00 0.00 88 1022.3
20190121113542 27 215 6.0 10.0 0.00 0.00 0.00 88 1022.4
20190121113042 27 246 5.0 8.0 0.00 0.00 0.00 89 1022.4
20190121112542 27 180 6.0 12.0 0.00 0.00 0.00 89 1022.4
20190121112042 26 233 7.0 10.0 0.00 0.00 0.00 88 1022.4
20190121111542 26 238 7.0 10.0 0.00 0.00 0.00 88 1023.1
20190121111042 26 248 7.0 7.0 0.00 0.00 0.00 88 1023.1
20190121110542 26 243 7.0 10.0 0.00 0.00 0.00 88 1023.1
20190121110042 26 225 7.0 11.0 0.00 0.00 0.00 88 1023.1
20190121105542 26 181 7.0 11.0 0.00 0.00 0.00 88 1023.2
20190121105042 26 198 7.0 11.0 0.00 0.00 0.00 88 1023.2
20190121104543 26 225 7.0 12.0 0.00 0.00 0.00 88 1023.2
20190121104042 26 171 7.0 9.0 0.00 0.00 0.00 88 1023.2
20190121103542 26 249 6.0 12.0 0.00 0.00 0.00 88 1023.1
20190121103042 26 262 5.0 6.0 0.00 0.00 0.00 88 1023.1
20190121102542 26 186 5.0 8.0 0.00 0.00 0.00 88 1023.1
20190121102042 26 215 7.0 13.0 0.00 0.00 0.00 88 1023.1
20190121101541 26 240 9.0 13.0 0.00 0.00 0.00 88 1023.1
20190121101042 25 238 9.0 10.0 0.00 0.00 0.00 88 1023.1
20190121100542 26 248 9.0 12.0 0.00 0.00 0.00 88 1023.1
20190121100043 26 248 8.0 12.0 0.00 0.00 0.00 88 1023.1
20190121095542 26 257 8.0 12.0 0.00 0.00 0.00 88 1023.0
20190121095043 26 240 7.0 12.0 0.00 0.00 0.00 89 1023.0
20190121094542 25 229 6.0 11.0 0.00 0.00 0.00 88 1023.0
20190121094042 25 239 7.0 9.0 0.00 0.00 0.00 89 1023.0
20190121093541 25 210 6.0 14.0 0.00 0.00 0.00 89 1023.1
20190121093042 25 225 6.0 14.0 0.00 0.00 0.00 89 1023.1
20190121092542 25 216 6.0 10.0 0.00 0.00 0.00 89 1023.1
20190121092043 25 241 6.0 11.0 0.00 0.00 0.00 89 1023.1
20190121091542 25 235 7.0 8.0 0.00 0.00 0.00 89 1023.1
20190121091043 25 250 8.0 11.0 0.00 0.00 0.00 89 1023.1
20190121090542 25 238 9.0 12.0 0.00 0.00 0.00 89 1023.1
20190121090043 25 240 8.0 12.0 0.00 0.00 0.00 89 1023.1
20190121085542 25 229 7.0 11.0 0.00 0.00 0.00 89 1023.3
20190121085042 25 223 6.0 10.0 0.00 0.00 0.00 89 1023.3
20190121084542 25 256 6.0 10.0 0.00 0.00 0.00 89 1023.3
20190121084042 25 230 6.0 9.0 0.00 0.00 0.00 89 1023.3
20190121083541 25 238 5.0 9.0 0.00 0.00 0.00 89 1023.3
20190121083041 25 256 5.0 9.0 0.00 0.00 0.00 89 1023.3
20190121082542 24 254 5.0 5.0 0.00 0.00 0.00 89 1023.3
20190121082041 24 270 5.0 9.0 0.00 0.00 0.00 89 1023.3
20190121081543 24 253 6.0 9.0 0.00 0.00 0.00 89 1023.2
20190121081042 24 270 8.0 8.0 0.00 0.00 0.00 89 1023.1
20190121080542 24 270 9.0 13.0 0.00 0.00 0.00 88 1023.1
20190121080043 24 253 8.0 13.0 0.00 0.00 0.00 88 1023.1
20190121080041 24 253 8.0 13.0 0.00 0.00 0.00 88 1023.1
20190121075542 24 239 7.0 12.0 0.00 0.00 0.00 88 1023.1
20190121075042 24 270 7.0 10.0 0.00 0.00 0.00 88 1023.1
20190121074542 24 251 8.0 12.0 0.00 0.00 0.00 88 1023.1
20190121074041 24 274 8.0 9.0 0.00 0.00 0.00 88 1023.1
20190121073542 25 261 8.0 11.0 0.00 0.00 0.00 88 1022.7
20190121073042 25 279 6.0 11.0 0.00 0.00 0.00 88 1022.6
20190121072542 25 262 6.0 11.0 0.00 0.00 0.00 88 1022.6
20190121072042 25 261 7.0 9.0 0.00 0.00 0.00 88 1022.6
20190121071542 25 279 7.0 9.0 0.00 0.00 0.00 88 1022.5
20190121071042 25 268 6.0 9.0 0.00 0.00 0.00 88 1022.5
20190121070543 25 270 5.0 10.0 0.00 0.00 0.00 88 1022.5
20190121070043 25 288 5.0 6.0 0.00 0.00 0.00 88 1022.5
20190121065542 25 270 6.0 8.0 0.00 0.00 0.00 88 1022.4
20190121065043 25 295 6.0 8.0 0.00 0.00 0.00 88 1022.4
20190121064542 25 281 5.0 8.0 0.00 0.00 0.00 88 1022.4
20190121064043 25 278 5.0 7.0 0.00 0.00 0.00 88 1022.4
20190121063543 26 270 5.0 8.0 0.00 0.00 0.00 88 1022.1
20190121063042 25 262 4.0 7.0 0.00 0.00 0.00 88 1022.1
20190121062543 25 270 4.0 6.0 0.00 0.00 0.00 88 1022.1
20190121062042 25 253 4.0 5.0 0.00 0.00 0.00 88 1022.1
20190121061542 25 260 3.0 6.0 0.00 0.00 0.00 88 1022.0
20190121061042 25 262 4.0 6.0 0.00 0.00 0.00 88 1022.0
20190121060543 25 270 4.0 5.0 0.00 0.00 0.00 88 1022.0
20190121060043 25 261 4.0 6.0 0.00 0.00 0.00 88 1022.0
20190121055543 25 241 4.0 6.0 0.00 0.00 0.00 88 1021.8
20190121055042 25 255 5.0 6.0 0.00 0.00 0.00 88 1021.8
20190121054542 25 241 5.0 8.0 0.00 0.00 0.00 88 1021.8
20190121054043 25 240 5.0 7.0 0.00 0.00 0.00 88 1021.8
20190121053542 25 251 5.0 8.0 0.00 0.00 0.00 88 1022.0
20190121053042 25 251 5.0 7.0 0.00 0.00 0.00 88 1022.0
20190121052543 26 263 4.0 10.0 0.00 0.00 0.00 88 1022.0
20190121052043 26 256 3.0 10.0 0.00 0.00 0.00 88 1022.0
20190121051542 25 259 4.0 5.0 0.00 0.00 0.00 88 1021.9
20190121051043 25 225 5.0 5.0 0.00 0.00 0.00 88 1021.9
20190121050543 25 229 5.0 7.0 0.00 0.00 0.00 88 1021.9
20190121050043 25 248 5.0 8.0 0.00 0.00 0.00 88 1021.9
20190121045543 25 248 4.0 8.0 0.00 0.00 0.00 88 1021.9
20190121045042 25 248 5.0 7.0 0.00 0.00 0.00 88 1021.9
20190121044543 25 248 5.0 7.0 0.00 0.00 0.00 88 1021.9
20190121044042 26 248 4.0 7.0 0.00 0.00 0.00 88 1021.9
20190121043543 26 248 4.0 5.0 0.00 0.00 0.00 88 1021.9
20190121043042 26 248 4.0 5.0 0.00 0.00 0.00 88 1021.9
20190121042543 26 260 4.0 6.0 0.00 0.00 0.00 88 1021.9
20190121042042 26 253 4.0 5.0 0.00 0.00 0.00 88 1021.9
20190121041543 26 254 3.0 6.0 0.00 0.00 0.00 88 1022.1
20190121041042 26 264 3.0 7.0 0.00 0.00 0.00 88 1022.1
20190121040543 26 254 3.0 7.0 0.00 0.00 0.00 88 1022.1
20190121040042 26 242 3.0 6.0 0.00 0.00 0.00 88 1022.1
20190121035542 26 240 4.0 4.0 0.00 0.00 0.00 88 1022.0
20190121035042 26 248 4.0 5.0 0.00 0.00 0.00 88 1022.0
20190121034542 26 247 4.0 6.0 0.00 0.00 0.00 88 1022.0
20190121034042 26 272 4.0 4.0 0.00 0.00 0.00 88 1022.0
20190121033542 26 241 4.0 6.0 0.00 0.00 0.00 88 1022.0
20190121033042 26 270 4.0 6.0 0.00 0.00 0.00 88 1022.0
20190121032542 26 250 3.0 5.0 0.00 0.00 0.00 88 1022.0
20190121032041 26 248 2.0 5.0 0.00 0.00 0.00 88 1022.0
20190121031542 26 243 3.0 5.0 0.00 0.00 0.00 88 1022.1
20190121031042 26 253 3.0 4.0 0.00 0.00 0.00 88 1022.1
20190121030542 26 259 4.0 4.0 0.00 0.00 0.00 88 1022.1
20190121030043 26 262 3.0 6.0 0.00 0.00 0.00 88 1022.1
20190121025542 26 258 3.0 6.0 0.00 0.00 0.00 88 1022.1
20190121025042 26 248 3.0 5.0 0.00 0.00 0.00 88 1022.1
20190121024543 26 255 3.0 4.0 0.00 0.00 0.00 88 1022.1
20190121024042 26 248 4.0 4.0 0.00 0.00 0.00 88 1022.1
20190121023543 26 251 3.0 6.0 0.00 0.00 0.00 88 1022.2
20190121023042 26 263 3.0 6.0 0.00 0.00 0.00 88 1022.2
20190121022543 26 230 3.0 4.0 0.00 0.00 0.00 88 1022.2
20190121022042 26 257 2.0 5.0 0.00 0.00 0.00 88 1022.2
20190121021542 26 248 2.0 4.0 0.00 0.00 0.00 88 1022.0
20190121021041 26 248 3.0 4.0 0.00 0.00 0.00 88 1022.0
20190121020542 26 248 3.0 7.0 0.00 0.00 0.00 88 1022.0
20190121020043 26 256 3.0 7.0 0.00 0.00 0.00 88 1022.0
20190121015542 26 244 4.0 4.0 0.00 0.00 0.00 88 1022.1
20190121015042 26 234 3.0 6.0 0.00 0.00 0.00 87 1022.1
20190121014542 26 238 2.0 4.0 0.00 0.00 0.00 87 1022.1
20190121014042 26 175 2.0 3.0 0.00 0.00 0.00 87 1022.1
20190121013543 26 242 3.0 3.0 0.00 0.00 0.00 87 1021.9
20190121013042 26 233 3.0 4.0 0.00 0.00 0.00 87 1021.9
20190121012542 26 220 3.0 6.0 0.00 0.00 0.00 87 1021.9
20190121012041 26 224 3.0 6.0 0.00 0.00 0.00 87 1021.9
20190121011542 26 271 3.0 4.0 0.00 0.00 0.00 87 1022.0
20190121011041 27 239 2.0 4.0 0.00 0.00 0.00 87 1022.0
20190121010543 27 236 2.0 4.0 0.00 0.00 0.00 87 1022.0
20190121010042 27 243 1.0 2.0 0.00 0.00 0.00 87 1022.0
20190121005543 27 237 1.0 2.0 0.00 0.00 0.00 87 1022.0
20190121005042 27 207 2.0 2.0 0.00 0.00 0.00 87 1022.0
20190121004543 27 246 2.0 6.0 0.00 0.00 0.00 87 1022.0
20190121004042 27 266 2.0 3.0 0.00 0.00 0.00 87 1022.0
20190121003542 27 251 2.0 5.0 0.00 0.00 0.00 87 1022.0
20190121003041 27 278 2.0 2.0 0.00 0.00 0.00 87 1022.0
20190121002543 27 235 2.0 5.0 0.00 0.00 0.00 87 1022.0
20190121002042 27 305 2.0 4.0 0.00 0.00 0.00 87 1022.0
20190121001543 27 269 3.0 4.0 0.00 0.00 0.00 87 1022.0
20190121001043 27 261 2.0 4.0 0.00 0.00 0.00 87 1022.0
20190121000543 27 229 2.0 4.0 0.00 0.00 0.00 87 1022.0
20190121000043 27 282 2.0 3.0 0.00 0.00 0.00 87 1022.0
20190120235543 27 270 2.0 4.0 0.00 0.00 0.00 87 1022.0
20190120235042 27 270 2.0 3.0 0.00 0.00 0.00 87 1022.0
20190120234542 27 266 3.0 4.0 0.00 0.00 0.00 87 1022.0
20190120234042 27 256 4.0 6.0 0.00 0.00 0.00 87 1022.0
20190120233542 27 248 4.0 7.0 0.00 0.00 0.00 87 1022.0
20190120233042 27 247 4.0 7.0 0.00 0.00 0.00 87 1022.0
20190120232542 27 248 4.0 5.0 0.00 0.00 0.00 87 1022.0
20190120232042 27 248 4.0 4.0 0.00 0.00 0.00 87 1022.0
20190120231542 27 256 4.0 5.0 0.00 0.00 0.00 87 1022.0
20190120231042 27 248 4.0 5.0 0.00 0.00 0.00 87 1022.0
20190120230542 27 251 4.0 5.0 0.00 0.00 0.00 87 1022.0
20190120230042 27 262 4.0 5.0 0.00 0.00 0.00 87 1022.0
20190120225542 27 244 4.0 9.0 0.00 0.00 0.00 87 1022.3
20190120225042 27 251 4.0 6.0 0.00 0.00 0.00 87 1022.3
20190120224542 27 247 4.0 6.0 0.00 0.00 0.00 87 1022.3
20190120224042 27 264 3.0 5.0 0.00 0.00 0.00 87 1022.3
20190120223541 27 259 3.0 5.0 0.00 0.00 0.00 87 1022.0
20190120223043 27 289 3.0 4.0 0.00 0.00 0.00 87 1022.0
20190120222543 27 249 4.0 6.0 0.00 0.00 0.00 87 1022.0
20190120222043 27 249 4.0 4.0 0.00 0.00 0.00 87 1022.0
20190120221542 27 255 4.0 7.0 0.00 0.00 0.00 87 1022.0
20190120221042 27 248 4.0 5.0 0.00 0.00 0.00 87 1022.0
20190120220542 27 238 4.0 8.0 0.00 0.00 0.00 87 1022.0
20190120220043 27 248 3.0 8.0 0.00 0.00 0.00 87 1022.0
20190120215542 27 252 4.0 5.0 0.00 0.00 0.00 87 1022.3
20190120215043 27 261 4.0 5.0 0.00 0.00 0.00 87 1022.3
20190120214542 27 239 4.0 5.0 0.00 0.00 0.00 87 1022.3
20190120214042 27 265 4.0 6.0 0.00 0.00 0.00 87 1022.3
20190120213542 27 265 4.0 8.0 0.00 0.00 0.00 87 1022.4
20190120213042 27 227 4.0 7.0 0.00 0.00 0.00 87 1022.4
20190120212542 27 249 3.0 5.0 0.00 0.00 0.00 87 1022.4
20190120212042 27 270 3.0 5.0 0.00 0.00 0.00 87 1022.4
20190120211542 27 279 3.0 6.0 0.00 0.00 0.00 87 1022.1
20190120211042 27 253 4.0 5.0 0.00 0.00 0.00 87 1022.1
20190120210542 27 251 4.0 8.0 0.00 0.00 0.00 87 1022.1
20190120210042 27 262 4.0 8.0 0.00 0.00 0.00 87 1022.1
20190120205542 27 284 4.0 6.0 0.00 0.00 0.00 87 1021.8
20190120205041 27 256 4.0 6.0 0.00 0.00 0.00 87 1021.8
20190120204543 27 266 3.0 6.0 0.00 0.00 0.00 87 1021.8
20190120204042 27 256 3.0 4.0 0.00 0.00 0.00 87 1021.8
20190120203542 27 249 3.0 6.0 0.00 0.00 0.00 87 1021.6
20190120203042 27 256 3.0 4.0 0.00 0.00 0.00 87 1021.6
20190120202543 27 258 3.0 6.0 0.00 0.00 0.00 87 1021.6
20190120202042 27 239 3.0 3.0 0.00 0.00 0.00 87 1021.6
20190120201542 27 239 3.0 5.0 0.00 0.00 0.00 87 1021.5
20190120201041 27 248 3.0 5.0 0.00 0.00 0.00 87 1021.5
20190120200543 27 283 2.0 4.0 0.00 0.00 0.00 87 1021.5
20190120200043 27 238 1.0 4.0 0.00 0.00 0.00 87 1021.5
20190120195542 27 318 1.0 2.0 0.00 0.00 0.00 87 1021.2
20190120195042 27 334 3.0 3.0 0.00 0.00 0.00 87 1021.1
20190120194542 27 278 4.0 5.0 0.00 0.00 0.00 87 1021.1
20190120194043 27 270 4.0 6.0 0.00 0.00 0.00 87 1021.1
20190120193542 27 258 5.0 8.0 0.00 0.00 0.00 87 1021.1
20190120193043 27 238 3.0 7.0 0.00 0.00 0.00 87 1021.1
20190120192542 27 222 1.0 7.0 0.00 0.00 0.00 87 1021.1
20190120192043 27 227 0.0 3.0 0.00 0.00 0.00 86 1021.1
20190120191542 27 171 1.0 1.0 0.00 0.00 0.00 86 1021.1
20190120191043 27 180 1.0 2.0 0.00 0.00 0.00 86 1021.1
20190120190542 27 226 1.0 2.0 0.00 0.00 0.00 86 1021.1
20190120190042 27 182 2.0 2.0 0.00 0.00 0.00 86 1021.1
20190120185542 27 248 1.0 3.0 0.00 0.00 0.00 86 1021.0
20190120185042 27 239 1.0 2.0 0.00 0.00 0.00 86 1021.0
20190120184543 27 269 2.0 2.0 0.00 0.00 0.00 86 1021.0
20190120184042 27 261 2.0 4.0 0.00 0.00 0.00 86 1021.0
20190120183542 27 269 3.0 4.0 0.00 0.00 0.00 86 1021.0
20190120183042 27 253 3.0 5.0 0.00 0.00 0.00 86 1021.0
20190120182543 27 265 3.0 6.0 0.00 0.00 0.00 86 1021.0
20190120182042 27 264 4.0 5.0 0.00 0.00 0.00 85 1021.0
20190120181543 27 275 4.0 6.0 0.00 0.00 0.00 85 1020.9
20190120181042 27 256 3.0 6.0 0.00 0.00 0.00 85 1020.9
20190120180543 27 282 3.0 5.0 0.00 0.00 0.00 85 1020.9
20190120180043 27 276 2.0 4.0 0.00 0.00 0.00 85 1020.9
20190120175543 27 262 2.0 4.0 0.00 0.00 0.00 85 1020.6
20190120175042 27 270 2.0 4.0 0.00 0.00 0.00 84 1020.6
20190120174542 27 295 2.0 4.0 0.00 0.00 0.00 84 1020.6
20190120174042 28 266 3.0 3.0 0.00 0.00 0.00 84 1020.6
20190120173542 28 262 3.0 5.0 0.00 0.00 0.00 84 1020.5